Location: Rounton
(54.4000°N, 1.3500°W)
Time: 13:26:14
(UTC+00:00)

Transit 2A Rocket - Pass Details

Date: 05 December 2021
Orbit: 584 x 918 km, 66.7° (Epoch: 21 January)

Event Time Altitude Azimuth Distance (km) Brightness Sun altitude
Rises 15:58:24 0° 317° (NW) 3,568 8.5 -2.6°
Reaches altitude 10° 16:01:00 10° 313° (NW) 2,618 7.9 -2.9°
Maximum altitude 16:06:57 54° 239° (WSW) 1,078 6.3 -3.7°
Drops below altitude 10° 16:12:37 10° 163° (SSE) 2,488 7.9 -4.3°
Sets 16:15:02 0° 159° (SSE) 3,377 8.5 -4.6°
